{"data":{"norad_id":59104,"epoch":"2026-09-22T14:46:01.547616Z","epoch_age_seconds":75147,"freshness":"FRESH","line1":"1 59104U 24043G   26265.61529569  .00000974  00000+0  88496-4 0  9994","line2":"2 59104  97.8520  36.6685 0007050  78.8757 281.3257 14.97596514139237","mean_motion":14.97596514,"eccentricity":0.000705,"inclination_deg":97.852,"raan_deg":36.6685,"arg_perigee_deg":78.8757,"mean_anomaly_deg":281.3257,"bstar":8.8496e-5,"rev_number":13923,"period_min":96.154069974017,"perigee_km":569.42357586568,"apogee_km":579.22654737257,"semimajor_km":6952.4620616191,"source":"CELESTRAK","updated_at":"2026-09-23T09:00:19.174215Z"}}